Location: Asheville, NC
(35.6000°N, 82.5500°W)
Time: 19:50:03
(UTC-04:00)

CUBESAT XI-V - Pass Details

Date: 09 January 2018
Orbit: 669 x 694 km, 97.9° (Epoch: 26 May)

Event Time Altitude Azimuth Distance (km) Brightness Sun altitude
Rises 17:56:44 0° 350° (N) 3,044 ? -4.9°
Reaches altitude 10° 18:00:00 10° 325° (NW) 2,118 ? -5.5°
Maximum altitude 18:02:19 14° 295° (WNW) 1,861 ? -5.9°
Drops below altitude 10° 18:04:38 10° 264° (W) 2,104 ? -6.3°
Sets 18:07:52 0° 239° (WSW) 3,009 ? -6.9°
